Tracking 19245 objects as of 18-Aug-2018
HD Live streaming from Space Station
objects crossing your sky now

FLOCK 3P 45

Track FLOCK 3P 45 now!
10-day predictions
FLOCK 3P 45 is classified as:


NORAD ID: 42005
Int'l Code: 2017-008BK
Perigee: 491.7 km
Apogee: 504.0 km
Inclination: 97.4 °
Period: 94.4 minutes
Semi major axis: 6868 km
RCS: Unknown
Launch date: February 15, 2017
Source: United States (US)
Launch site: SRIHARIKOTA (SRI)
aabbcc
Your satellite tracking list
Your tracking list is empty




NASA's NSSDC Master Catalog

Two Line Element Set (TLE):
1 42005U 17008BK  18229.50245711  .00002661  00000-0  10941-3 0  9997
2 42005  97.4456 294.2073 0008925 146.2431 213.9376 15.25020856 83455
Source of the keplerian elements: AFSPC